Theta_e
305 306 307 307 307 307 307 307 307 306 305 305 306 306 307 308 308 309 310 311 312 312 312 311 311 311 310 310 311 311 310 310 309 309 309 308 308 307 307 307 307 306 306 306 306 306 306 306 306 307 307 307 308 308 309 310 311 312 313 313 314 315 314 314 313 313 312 312 311 310 309 308 307 306 305 305 304 303 303 303 303 303 303 304 304 304
303 304 306 306 307 306 306 306 307 306 305 305 305 306 306 306 307 308 310 310 310 310 310 310 310 309 309 310 310 310 310 310 309 309 308 308 307 307 306 306 306 306 305 305 305 305 305 305 305 305 305 305 305 306 306 307 308 309 310 312 313 313 314 314 313 313 312 311 310 309 308 307 306 305 304 304 303 303 302 302 302 302 302 303 303 304
302 303 304 305 306 306 305 305 306 306 305 305 305 305 305 306 306 306 308 308 309 309 309 309 309 309 308 309 310 310 310 309 309 309 308 307 307 306 306 305 305 305 305 304 304 304 304 304 303 303 303 303 303 304 304 304 305 306 307 309 310 311 311 312 312 311 311 310 309 308 307 306 305 304 304 303 303 302 301 301 300 301 301 302 303 303
302 302 302 303 304 304 303 304 304 305 305 304 304 304 305 305 304 304 305 306 307 308 308 308 308 307 307 308 309 310 310 309 309 308 307 307 306 306 305 305 305 304 304 304 303 303 303 302 302 302 302 302 302 302 302 303 303 304 305 306 307 308 308 309 309 309 309 308 307 306 306 305 304 304 303 303 302 301 301 300 300 299 300 301 302 303
302 302 302 302 302 301 301 302 303 303 303 303 303 303 303 301 300 300 302 304 306 306 306 306 306 306 306 307 308 309 309 309 308 308 307 306 306 305 305 304 304 303 303 303 302 302 302 301 301 301 301 301 301 301 301 302 302 303 303 304 304 305 305 306 306 306 306 306 305 305 304 304 304 303 302 302 301 301 300 299 299 299 299 300 301 302
301 302 302 302 301 300 299 300 301 301 301 300 300 299 298 297 297 298 300 302 303 304 304 304 305 305 305 306 307 308 309 308 308 307 306 306 305 304 304 304 303 303 302 302 301 301 301 300 300 300 300 300 300 300 300 300 301 301 302 302 303 303 304 304 304 304 304 304 304 304 303 303 303 302 301 301 300 300 300 299 299 298 298 299 300 302
301 301 301 300 298 297 297 298 300 301 300 299 297 296 295 295 296 297 298 300 301 302 302 303 303 304 305 305 307 308 308 307 307 306 306 305 305 304 304 303 302 302 302 301 300 300 300 300 299 299 299 299 299 299 299 299 300 300 301 301 302 302 302 303 303 303 303 303 303 303 302 302 302 301 301 300 300 300 299 299 298 298 298 299 300 301
300 300 299 297 295 294 295 297 299 300 300 299 297 295 294 294 294 295 296 297 298 300 301 301 301 301 303 305 306 306 306 305 305 305 305 304 304 303 303 302 302 302 301 300 300 300 299 299 298 298 298 298 298 298 298 298 299 299 299 300 300 301 301 301 302 302 302 302 302 302 301 301 301 300 300 300 299 299 299 298 298 298 298 299 300 301
299 298 297 296 296 296 296 296 297 298 299 299 298 297 296 295 294 294 295 295 296 298 299 300 300 300 301 302 304 305 305 304 304 303 303 302 302 302 302 302 301 301 300 300 300 299 299 298 298 298 298 297 297 297 297 297 298 298 298 299 299 300 300 301 301 301 301 301 301 301 301 301 300 300 299 299 299 298 298 298 298 298 298 299 300 301
299 298 297 297 297 297 297 296 296 297 298 298 298 297 297 297 296 295 294 294 294 295 297 299 300 299 299 300 301 303 303 303 303 303 303 301 301 301 301 301 300 300 300 300 299 299 298 298 298 297 297 297 297 296 296 296 296 297 297 298 298 299 299 299 300 300 300 300 300 300 300 300 300 299 299 298 298 298 298 298 298 298 299 300 301 301
298 298 298 296 295 294 296 295 295 295 297 296 296 296 297 297 297 297 296 294 294 294 296 297 297 297 298 299 300 301 301 301 301 302 303 302 302 301 301 300 300 300 300 299 299 298 298 298 297 297 296 296 296 296 296 296 296 296 296 296 297 297 298 298 299 299 299 300 300 300 300 300 299 299 298 298 297 297 297 297 298 298 299 300 301 302
298 298 297 296 294 294 294 293 294 295 296 296 295 294 295 296 297 298 297 296 296 295 295 292 291 291 294 297 298 299 299 298 298 298 298 299 300 299 298 298 298 299 299 299 298 298 297 297 296 296 296 295 295 295 295 295 295 295 296 296 296 297 297 297 298 298 298 299 299 299 299 299 298 298 298 297 297 297 297 297 297 298 299 301 302 302
298 297 297 296 295 294 293 293 293 294 295 295 295 295 295 296 297 298 298 297 297 296 295 292 289 288 289 292 295 297 297 296 295 295 295 295 294 293 292 292 293 293 294 294 294 295 297 296 296 295 295 294 294 295 295 295 295 295 295 295 296 296 296 296 297 297 297 298 298 298 298 298 298 298 297 297 297 296 296 296 297 298 299 301 302 303
297 297 296 295 294 294 294 293 293 294 295 296 296 296 296 296 296 296 297 297 296 296 295 293 291 288 288 289 291 294 296 295 294 294 293 291 289 288 289 289 288 288 289 289 290 292 295 293 292 292 294 294 294 294 294 294 295 295 295 295 295 295 295 295 296 296 296 297 297 297 297 297 297 297 297 296 296 296 296 296 297 298 299 301 302 304
297 296 295 294 294 294 294 294 295 295 296 296 297 296 296 296 296 296 296 295 294 294 294 292 290 288 287 287 288 290 295 294 294 293 291 289 287 286 287 288 288 287 288 288 289 289 291 290 288 289 291 291 292 292 293 294 294 295 295 295 295 295 295 295 295 295 296 296 296 297 297 297 296 296 296 296 296 296 296 297 297 298 299 301 302 303
297 296 296 295 295 295 295 295 296 296 296 296 296 296 295 295 295 296 296 295 294 293 293 292 291 289 289 288 288 288 292 294 293 292 290 288 286 285 286 289 288 287 287 287 286 285 284 284 284 286 287 290 292 293 294 294 294 294 294 294 294 295 295 295 295 295 295 295 296 296 296 296 296 296 296 296 295 296 296 297 298 299 299 300 301 302
298 297 297 297 296 296 296 296 297 297 297 296 296 295 295 295 296 296 296 294 293 293 293 293 292 291 290 289 289 289 290 292 293 292 290 288 285 284 283 288 288 287 286 286 285 283 283 283 284 285 287 291 293 293 293 293 294 294 294 294 294 294 294 294 295 295 295 295 295 295 295 296 296 295 295 295 295 296 296 297 298 298 299 300 300 301
299 299 299 298 297 297 296 296 297 297 297 296 295 295 295 296 296 296 295 294 293 293 293 293 293 293 293 291 290 290 289 291 292 291 290 288 285 283 281 285 287 288 286 286 284 282 281 282 282 284 288 291 292 293 293 293 294 294 294 294 294 294 294 294 294 295 295 295 295 295 295 295 295 295 295 295 295 296 296 297 298 298 299 299 300 301
300 300 300 300 299 298 297 297 297 297 296 296 295 295 295 295 296 296 295 294 294 293 294 294 294 294 294 293 292 290 289 290 291 291 289 287 285 283 280 284 287 287 286 286 284 283 281 281 285 289 292 292 292 292 293 293 294 294 294 294 293 293 293 294 294 294 295 295 295 295 295 295 295 295 295 295 295 296 297 297 298 298 298 299 300 300
300 301 301 301 300 299 297 297 298 298 297 297 296 295 295 295 295 295 295 294 294 295 295 294 294 294 295 292 290 289 290 290 291 290 289 287 285 283 279 284 286 287 285 285 283 281 280 281 284 288 292 292 293 293 293 294 294 294 294 293 293 293 293 293 294 294 295 295 295 295 295 295 295 295 295 295 295 296 296 297 297 298 298 299 299 299
301 301 302 303 302 300 298 298 298 299 299 298 296 295 295 295 295 295 295 294 294 294 295 294 295 294 293 291 289 289 290 291 291 290 289 286 284 282 280 283 285 286 285 284 282 281 280 281 282 285 291 292 293 293 293 294 294 294 294 293 293 293 293 293 294 294 295 295 295 295 295 295 295 295 295 295 295 296 296 296 297 297 298 298 298 299
302 302 302 302 302 302 301 299 298 299 299 297 296 295 296 295 295 294 294 294 294 294 295 294 292 290 288 289 289 290 291 292 291 291 289 286 284 282 281 282 284 286 285 284 282 280 280 281 281 283 289 292 293 293 294 294 294 294 294 294 293 293 293 293 294 294 294 295 295 295 295 295 295 295 295 295 295 295 295 296 296 297 297 298 298 298
302 301 301 300 300 299 299 298 298 298 298 297 296 297 297 296 295 295 295 294 294 294 292 287 285 284 285 288 289 290 291 292 292 291 289 286 285 283 280 282 284 285 285 283 282 281 280 281 282 284 288 292 293 293 293 294 294 294 294 294 293 293 293 293 293 294 294 295 295 295 295 295 295 295 295 295 295 295 295 296 296 296 297 297 297 298
300 300 299 299 297 296 297 297 297 297 297 297 297 297 296 296 296 295 296 295 293 291 288 286 286 286 286 288 288 289 290 291 291 291 290 288 286 283 281 282 284 285 285 283 282 281 281 282 282 283 285 290 292 293 293 293 294 293 294 293 293 293 293 293 293 294 294 294 295 295 295 295 295 295 295 295 295 295 295 295 295 296 296 296 297 297
299 298 298 298 298 297 298 298 298 298 297 297 296 296 295 296 296 296 294 293 291 289 288 288 287 286 285 287 287 288 289 289 289 290 290 288 285 283 282 283 284 285 284 282 281 281 281 282 282 282 282 285 289 293 293 293 293 293 293 293 293 293 293 293 293 294 294 294 294 295 295 295 295 295 295 295 295 295 295 295 295 295 296 296 296 296
300 300 300 300 300 301 300 300 300 300 299 298 297 297 296 296 295 293 291 290 289 289 289 289 287 286 284 285 286 287 288 287 287 288 290 288 284 281 282 283 284 284 283 281 280 281 281 282 282 281 280 281 286 291 292 293 293 293 293 293 293 293 293 293 293 294 294 294 294 295 295 295 295 295 294 294 295 295 295 295 295 295 295 295 295 295
302 302 302 302 302 302 301 301 301 301 301 300 299 298 297 295 293 291 289 289 289 289 289 289 288 286 283 284 285 286 287 286 286 285 287 287 284 282 281 282 283 284 282 281 280 281 282 282 282 281 281 279 281 285 290 292 293 293 293 293 293 293 293 293 293 294 294 294 294 294 294 295 294 294 294 294 295 295 295 295 294 294 294 294 293 292
302 302 302 302 302 302 302 301 301 301 301 301 300 300 298 295 293 291 289 289 290 290 290 290 288 286 284 284 284 285 286 287 286 285 284 287 286 283 281 282 283 283 282 281 281 282 283 282 281 280 280 279 279 281 286 290 292 293 293 293 293 293 293 293 293 293 294 294 294 294 294 294 294 294 294 294 295 295 294 294 294 294 293 290 287 286
300 301 301 301 302 301 302 301 301 302 302 301 301 300 299 296 294 292 290 290 290 290 291 291 289 287 285 284 283 283 285 286 286 285 285 287 286 283 281 282 283 283 282 280 280 280 281 280 278 277 277 280 280 280 281 287 290 292 293 293 293 293 293 293 293 294 294 294 294 294 294 294 294 294 294 294 294 294 294 294 293 292 289 285 283 283
298 299 299 300 301 301 301 301 301 301 302 301 301 300 299 297 295 293 292 291 291 291 291 291 289 287 285 284 283 282 283 285 286 286 286 287 286 283 281 281 282 282 282 281 280 279 278 278 276 276 276 279 280 279 277 281 285 288 290 292 292 292 293 293 293 294 294 294 294 294 294 294 294 294 294 294 294 294 294 294 292 289 284 282 281 281
296 297 297 298 299 299 300 300 300 301 301 301 301 300 299 297 295 294 293 292 291 292 291 291 289 287 286 285 284 283 284 285 286 287 287 288 286 282 281 281 282 282 282 281 281 279 278 277 277 277 277 278 279 279 278 279 281 283 286 289 290 291 292 293 293 293 294 294 294 294 294 294 294 294 294 294 294 294 294 293 291 287 282 281 281 281
295 295 295 296 296 297 297 299 299 299 300 300 299 299 298 296 295 294 293 293 293 292 292 291 289 287 287 287 286 286 285 285 286 288 288 288 284 281 281 282 281 281 279 280 280 281 279 278 277 277 276 277 277 278 278 279 279 281 283 286 288 289 292 292 293 293 293 293 294 294 294 294 294 294 294 294 294 294 294 293 291 288 282 281 281 281
294 293 293 294 294 294 295 296 296 297 297 297 296 296 295 295 295 294 293 293 293 293 292 291 289 288 287 288 287 286 284 284 286 289 289 287 283 281 282 282 282 280 278 277 277 278 278 277 276 276 276 276 277 277 278 278 280 282 283 285 286 287 290 291 292 292 292 293 293 294 294 294 294 294 294 293 294 293 293 293 292 289 285 282 281 281
293 293 293 293 293 293 293 293 293 294 294 294 293 293 292 292 293 293 293 292 292 292 293 291 290 288 288 288 287 284 281 283 287 290 290 286 283 281 282 282 281 280 278 277 275 274 274 273 274 276 277 276 276 276 277 278 280 282 282 284 284 284 287 288 289 289 289 289 289 289 290 291 293 294 293 293 293 293 293 293 292 291 289 285 282 281
292 292 292 292 292 292 291 291 291 291 291 291 291 291 290 290 290 290 290 289 289 289 289 290 290 290 289 289 287 285 281 283 287 290 290 287 284 282 282 282 282 281 280 278 276 274 273 273 275 277 278 278 277 277 276 275 277 279 280 283 283 283 283 283 284 285 285 284 283 282 281 283 286 289 291 292 293 293 293 293 292 292 291 289 286 282
291 291 291 291 291 291 291 290 290 290 289 287 286 286 288 287 287 287 286 286 286 287 286 287 287 287 288 290 289 287 284 284 287 290 290 287 285 284 283 283 282 282 281 280 278 276 275 275 277 279 280 278 278 278 277 276 277 279 280 282 282 282 280 280 280 280 280 281 280 279 277 278 280 283 285 291 292 293 293 293 292 292 292 291 289 286
290 290 290 290 290 290 290 289 289 288 286 284 284 284 285 285 285 285 284 284 285 286 286 285 285 285 285 284 285 286 287 286 288 289 290 288 286 285 284 283 283 283 282 281 280 278 277 278 278 279 279 277 277 278 279 279 279 280 280 281 281 280 279 279 279 279 278 280 280 278 277 278 279 281 283 290 291 291 292 292 293 292 292 292 291 290
289 289 289 289 289 289 289 288 287 286 285 283 283 283 283 283 283 283 283 283 283 284 284 283 283 284 285 285 284 285 287 287 288 288 289 287 286 286 286 284 284 284 284 283 282 281 279 279 279 278 277 274 275 278 280 281 281 281 280 280 279 278 278 278 278 278 279 280 280 279 279 278 278 279 281 283 284 284 284 284 287 290 292 291 291 291
288 288 289 289 289 288 288 287 286 285 283 283 282 282 282 282 282 282 282 282 282 282 282 282 281 281 282 284 285 286 288 287 287 287 287 287 286 286 286 284 284 284 284 284 283 282 281 280 279 278 277 274 274 275 278 280 281 281 280 280 280 279 278 277 278 279 280 279 281 281 279 276 276 277 277 277 278 280 280 279 281 283 284 284 287 290
288 288 288 289 289 288 288 287 285 283 282 282 282 282 282 282 282 281 281 281 281 281 281 280 280 280 280 281 282 283 284 285 287 287 286 286 286 286 286 285 284 283 283 283 283 282 282 280 280 279 279 276 275 276 279 280 281 281 282 281 281 280 280 278 276 275 277 277 278 279 278 274 274 276 276 276 276 277 277 276 277 279 281 280 280 283
288 288 288 288 288 288 287 285 283 282 282 282 282 282 282 282 281 280 280 281 281 281 281 281 280 279 279 278 277 277 277 278 280 280 279 281 283 284 285 285 284 284 283 282 281 281 281 280 278 277 275 274 275 277 279 280 281 282 283 281 278 275 276 278 276 275 275 275 276 278 279 277 276 276 276 277 276 274 275 274 274 276 278 276 276 277
288 288 287 287 286 284 282 281 282 282 282 282 282 281 281 281 281 281 280 280 279 279 280 280 280 279 278 278 277 276 275 274 274 274 272 274 276 280 283 284 284 283 283 281 280 280 280 280 279 277 275 275 275 275 276 279 281 282 283 280 278 278 280 279 276 273 274 274 275 277 281 278 277 276 277 277 274 273 275 274 276 278 279 274 273 274
288 287 286 284 283 282 281 281 282 282 282 281 281 281 281 282 282 282 281 280 280 280 280 281 281 280 279 278 277 277 276 273 273 273 272 271 273 276 281 282 283 283 283 282 280 279 278 279 277 276 276 277 277 276 276 278 280 281 282 281 280 278 278 278 275 273 273 274 274 275 277 277 276 275 276 276 274 273 273 277 280 282 282 276 273 272
287 285 283 282 281 281 281 281 281 281 281 281 281 281 281 281 282 283 282 281 280 280 280 280 280 280 279 278 277 276 276 275 273 273 274 275 274 275 278 281 282 283 283 282 281 279 276 277 275 273 273 275 276 277 277 278 279 280 280 280 280 280 279 278 276 275 273 274 274 274 273 274 274 274 275 275 273 273 273 274 274 276 280 276 274 272
284 282 281 281 281 281 280 280 281 281 281 281 280 280 280 281 282 283 282 281 280 280 280 280 281 280 278 277 276 276 275 275 275 274 274 277 279 279 278 279 281 282 282 282 281 280 278 275 272 270 271 273 275 276 277 278 278 279 280 280 280 278 275 275 276 277 276 275 274 273 271 272 273 274 274 273 272 272 271 272 273 274 275 275 274 274
282 281 281 280 280 281 281 281 281 280 280 280 280 279 279 280 281 282 282 281 280 279 279 281 281 281 278 277 276 276 275 275 274 274 273 273 273 274 277 279 280 280 280 280 280 279 279 277 274 273 273 273 274 274 275 277 278 278 279 280 279 276 273 273 274 276 277 277 275 272 270 271 273 274 274 274 273 272 271 271 272 273 273 274 274 274
282 281 280 280 280 281 281 281 280 280 280 280 279 279 279 279 280 281 281 281 280 280 280 281 281 280 278 277 277 276 276 275 274 273 273 273 273 273 274 276 278 278 277 276 276 276 277 276 276 276 277 275 274 273 273 275 276 278 278 279 278 277 274 272 272 274 277 277 276 273 270 272 274 275 274 273 273 272 271 271 272 272 273 274 274 274
282 281 281 281 280 280 280 280 280 280 279 279 278 278 278 279 279 280 280 280 280 280 280 280 280 279 278 277 277 277 278 277 276 275 274 273 273 274 274 274 275 276 277 276 275 275 273 273 274 276 277 277 276 275 273 273 275 277 278 278 278 277 276 272 271 272 274 276 275 274 274 275 276 275 274 273 273 273 272 272 272 273 273 274 274 275
282 282 281 281 281 280 280 279 279 279 279 279 278 277 277 279 281 281 280 280 280 280 280 280 279 279 277 277 277 278 278 278 276 275 274 273 273 274 274 274 275 275 276 275 274 274 274 275 275 275 275 277 277 276 275 274 274 274 275 277 278 277 276 274 272 273 274 274 273 273 275 276 275 275 276 275 274 273 273 273 273 272 273 273 274 276
283 282 282 281 281 280 280 279 279 279 279 278 277 277 276 278 279 280 280 279 280 280 280 279 279 278 277 276 277 277 278 277 276 275 274 273 274 275 275 275 276 276 275 274 273 274 273 275 276 277 278 278 278 277 276 275 273 273 273 275 276 277 276 274 274 274 275 274 273 273 273 274 274 274 275 275 274 273 272 273 273 274 273 273 274 276
283 282 282 281 281 280 280 279 279 279 279 279 278 277 277 277 278 278 278 279 279 279 279 279 278 278 277 276 277 277 277 276 276 275 275 275 275 276 277 277 277 276 276 274 274 274 274 274 274 275 278 281 282 280 277 276 275 274 273 274 274 275 275 273 273 274 276 275 274 274 273 273 273 274 275 275 274 273 272 272 272 273 272 272 273 275
Wind_Speed
5 6 6 9 9 8 8 11 11 10 8 6 5 5 5 5 5 6 7 7 7 7 7 7 8 10 12 15 17 18 18 18 18 17 16 16 15 14 13 13 12 11 11 11 10 10 10 9 9 8 8 8 7 6 6 6 6 7 8 8 9 10 10 11 11 11 11 11 11 10 10 10 9 9 9 8 7 7 6 5 4 3 2 2 1 1
4 5 6 9 9 8 7 10 11 11 10 8 7 6 6 6 5 5 5 6 6 7 7 7 8 9 11 13 16 19 19 19 18 17 17 16 15 14 14 13 12 12 11 11 11 10 10 9 9 9 9 8 8 7 7 6 5 4 4 5 7 8 10 10 10 10 10 10 10 10 10 10 10 9 8 8 7 6 6 5 4 3 2 2 1 1
5 5 6 7 8 8 6 9 10 10 11 9 8 7 7 7 6 5 4 5 5 6 6 7 8 9 10 11 15 18 19 19 18 18 17 16 15 15 14 13 13 12 12 11 11 10 10 9 9 9 9 9 8 8 8 7 7 6 6 5 5 6 7 7 8 8 8 9 10 11 11 10 10 9 8 7 7 6 5 5 4 3 2 1 1 1
6 6 6 5 5 5 5 6 7 8 8 7 7 8 8 6 5 4 4 4 5 5 6 7 7 8 7 9 12 16 19 19 18 18 17 16 16 15 14 13 13 12 12 11 11 10 10 10 9 9 9 8 8 8 8 7 7 8 8 8 8 7 7 7 7 8 9 10 10 11 10 10 9 9 8 7 7 6 5 4 3 2 2 1 1 0
5 6 6 5 4 3 3 4 5 6 6 6 6 6 6 5 4 3 3 4 5 5 5 6 7 7 6 7 10 14 17 18 18 18 17 17 16 15 14 14 13 13 12 12 11 11 10 10 9 9 9 8 8 8 7 7 7 8 8 9 9 9 10 9 9 10 10 10 10 10 10 9 9 8 8 7 6 6 5 4 3 2 1 1 1 1
5 5 5 4 3 2 2 2 4 5 5 5 5 5 4 3 3 3 3 4 4 5 4 5 5 6 6 6 9 13 16 17 18 17 17 17 16 15 15 14 14 13 12 12 11 11 10 10 9 9 9 8 8 8 7 7 7 7 8 8 9 9 9 9 10 10 10 10 10 10 9 9 8 8 7 7 6 6 5 4 3 2 1 1 1 1
4 3 3 3 2 2 1 2 3 4 4 4 4 4 3 3 2 2 3 3 4 4 4 4 4 4 5 6 9 12 14 16 17 17 17 17 16 16 15 15 14 13 13 12 12 11 11 10 10 9 9 8 8 8 7 7 7 7 7 7 8 8 8 9 9 9 9 9 9 9 9 9 8 8 7 7 6 6 5 4 3 2 1 0 1 2
4 3 2 2 2 2 1 1 2 3 4 5 4 4 3 2 2 2 3 3 3 3 4 3 3 3 4 5 7 9 10 12 12 13 14 15 15 15 15 15 14 14 13 13 12 12 11 11 10 10 9 9 8 8 8 7 7 7 7 7 7 7 7 8 8 8 8 8 8 9 9 9 8 8 7 7 6 5 5 4 3 2 1 1 2 2
5 4 3 3 3 3 2 1 1 2 3 4 5 5 5 4 3 2 3 3 2 2 3 3 3 3 3 4 5 7 8 8 8 8 9 10 10 12 13 14 14 14 13 13 12 12 12 11 11 10 9 9 8 8 8 7 7 7 6 6 7 7 7 7 7 7 7 8 8 8 8 8 8 8 7 7 6 5 5 3 2 1 1 2 2 3
5 5 5 3 3 3 3 2 2 2 2 3 4 4 4 5 5 4 3 2 1 1 2 3 4 4 3 3 4 5 6 7 8 9 9 9 10 10 11 11 11 12 13 13 13 12 12 11 11 10 10 9 9 8 8 7 7 6 6 6 6 6 6 7 7 7 7 7 7 8 8 8 8 7 7 7 6 5 4 3 2 2 1 2 2 3
4 4 5 4 3 2 2 2 2 2 3 4 3 3 2 4 5 6 6 4 3 2 2 2 3 3 4 4 4 4 5 5 7 8 10 11 11 12 11 11 11 11 13 13 13 12 12 12 11 11 10 9 9 8 8 7 7 6 6 6 6 6 6 6 6 6 7 7 7 7 7 7 7 7 7 6 6 5 4 3 3 3 4 4 4 4
4 4 4 3 3 2 2 2 2 2 4 4 3 2 2 2 3 5 7 7 6 5 4 2 1 1 2 3 4 4 4 4 5 5 6 7 8 9 9 9 9 10 11 11 11 12 12 12 11 11 10 9 9 8 8 7 7 7 6 6 6 6 6 6 6 6 6 7 7 7 7 7 7 7 7 6 5 4 3 2 2 3 5 5 5 5
3 3 3 3 3 3 3 3 3 3 3 4 4 5 4 3 3 3 5 6 6 6 5 3 2 2 2 1 2 4 5 4 4 4 4 4 4 4 4 5 5 5 6 6 7 8 10 11 11 10 10 9 9 8 8 7 7 7 7 6 6 6 6 6 6 6 6 7 7 7 7 7 7 7 7 6 5 4 3 1 1 3 5 5 5 5
4 3 3 3 3 4 4 4 5 5 4 4 5 5 4 4 3 3 3 4 4 4 4 4 3 2 2 2 1 2 5 5 5 4 4 3 3 2 3 4 3 3 3 3 3 4 6 7 7 8 9 9 8 8 7 7 7 7 7 7 6 6 6 6 6 6 6 6 7 7 7 7 7 7 7 6 5 4 3 2 0 2 4 5 5 5
6 5 4 4 4 4 4 5 5 6 5 4 4 4 4 4 4 4 4 4 4 4 4 4 3 1 1 1 1 0 4 5 5 5 4 3 1 1 2 4 3 3 3 3 3 3 4 4 4 4 6 6 6 6 6 6 7 8 7 7 7 6 6 6 6 6 6 7 7 7 7 7 7 7 7 6 6 5 4 3 1 1 3 4 5 6
6 6 6 6 5 5 4 5 5 5 5 5 4 4 5 5 5 5 5 5 5 4 4 4 3 2 1 1 1 1 3 5 5 5 6 3 1 1 1 3 4 3 3 3 3 2 2 2 3 4 4 5 7 7 7 7 7 8 8 7 7 7 6 6 6 7 7 7 7 7 7 7 7 7 7 7 7 6 5 4 2 2 3 4 6 6
5 6 6 6 5 5 4 4 4 5 5 5 5 5 6 6 6 6 5 5 5 4 5 5 5 4 3 1 1 2 3 4 5 6 6 4 2 1 1 3 4 4 3 3 3 2 2 3 3 3 4 7 8 9 8 8 8 8 8 8 7 7 7 7 7 7 7 7 8 8 8 8 8 8 8 7 7 6 6 4 3 3 4 5 5 6
5 6 6 6 6 6 5 5 4 4 5 5 5 5 5 5 5 5 5 5 5 5 6 6 6 5 4 4 4 4 4 4 5 6 6 5 2 0 2 1 3 4 4 3 3 2 3 3 3 4 5 8 9 9 9 9 9 8 8 8 8 7 7 7 7 7 7 7 8 8 8 8 8 8 8 8 7 7 6 5 4 4 4 5 5 6
6 6 6 6 6 6 6 6 6 6 6 7 7 7 6 6 5 5 5 5 6 6 7 6 6 5 4 4 4 5 4 4 5 6 6 5 3 1 2 1 3 4 4 4 3 3 2 2 4 6 8 9 9 9 9 9 9 9 9 8 8 8 7 7 7 7 7 8 8 9 9 9 9 8 8 8 8 7 6 6 5 5 5 5 6 6
6 6 6 6 6 6 6 7 7 7 8 8 8 7 7 7 7 6 6 6 6 6 5 5 5 5 4 3 4 5 5 4 5 5 5 5 4 2 1 2 3 4 4 3 3 2 2 2 3 5 8 9 9 10 10 10 9 9 9 9 8 8 8 8 7 7 8 8 9 9 9 9 9 9 8 8 8 7 7 6 6 6 6 6 6 7
6 6 5 5 6 6 6 6 7 7 8 8 8 7 7 7 7 7 7 7 6 6 6 6 5 4 3 4 5 6 7 6 6 5 4 4 3 2 1 2 3 5 5 3 2 1 1 2 2 2 5 8 9 10 10 10 10 10 9 9 9 8 8 8 8 8 8 8 9 9 9 9 9 9 8 8 8 7 7 7 6 6 6 7 7 7
5 5 4 4 4 5 5 5 6 7 8 9 9 8 7 7 7 7 7 7 7 7 6 5 3 2 2 4 5 7 9 8 7 6 5 4 4 3 2 2 3 4 5 4 2 1 1 1 1 2 5 8 9 10 10 10 10 10 10 9 9 9 8 9 9 9 9 9 9 10 10 10 9 9 8 8 8 8 7 7 7 7 7 7 7 8
4 4 4 4 3 3 4 5 6 7 8 8 8 8 6 7 8 8 7 7 6 5 4 3 2 2 3 3 5 6 7 7 6 5 5 6 6 5 3 3 3 4 4 3 3 2 1 1 1 2 3 8 10 10 10 10 10 10 10 10 9 9 9 9 9 9 10 10 10 10 10 10 10 9 9 8 8 8 8 7 7 7 7 7 7 8
4 4 4 4 4 4 4 6 6 6 7 6 6 5 5 5 5 5 5 5 4 4 4 4 3 3 3 3 4 5 6 5 4 4 5 5 5 4 4 4 4 5 4 3 2 2 2 2 1 1 2 6 9 10 10 10 10 10 10 10 9 9 9 9 10 10 10 10 10 10 11 10 10 10 9 9 9 8 8 8 7 7 7 7 7 7
4 4 4 4 5 6 6 7 8 8 8 6 5 4 4 5 5 4 4 4 5 5 5 4 4 3 2 3 4 4 5 4 4 4 4 4 4 4 4 5 5 5 4 2 2 2 2 2 1 0 2 3 7 9 10 10 10 10 10 10 10 10 9 10 10 10 11 11 11 11 11 11 11 10 10 10 9 9 9 8 8 8 7 7 7 7
5 6 6 7 8 10 11 12 13 13 12 9 7 6 5 6 6 5 5 4 5 5 6 5 4 3 3 3 3 4 4 3 3 3 3 4 4 4 4 4 4 4 4 2 2 2 3 3 2 1 1 2 4 6 9 10 10 10 10 10 10 10 10 10 10 11 11 11 11 11 11 11 11 11 10 10 10 9 9 9 8 8 7 7 7 6
8 9 11 12 12 13 14 16 17 18 18 15 12 10 8 7 7 6 6 6 6 7 7 6 5 4 3 3 3 4 4 4 3 2 2 4 4 4 4 4 4 4 4 2 2 2 3 3 2 2 2 2 2 3 7 9 10 11 11 11 10 10 10 11 11 11 12 12 12 12 12 11 11 11 11 10 10 10 10 9 9 8 7 6 5 4
10 11 12 13 14 15 16 17 19 20 20 19 18 16 12 9 8 8 7 7 7 7 7 6 5 4 4 3 3 3 4 4 4 3 2 4 4 4 4 4 4 4 4 3 2 2 2 1 1 1 2 2 2 3 5 7 9 11 11 11 11 11 11 11 11 12 12 12 12 12 12 12 12 11 11 11 11 10 10 10 9 8 6 5 4 3
10 11 12 13 14 15 16 17 18 19 21 21 20 18 13 9 8 8 7 7 7 7 7 7 5 4 4 3 3 2 3 4 4 4 3 4 4 4 4 4 4 4 4 3 2 1 0 1 1 1 2 2 2 2 3 5 7 9 10 11 11 11 11 11 12 12 12 12 12 12 12 12 12 12 11 11 11 11 10 10 9 7 5 5 4 3
7 8 9 11 12 13 13 13 14 17 20 21 20 17 12 8 7 7 7 7 8 8 7 6 5 5 4 4 3 2 3 4 4 4 4 4 4 4 5 5 5 5 5 4 3 1 1 2 1 1 1 2 2 1 2 2 3 3 5 8 9 10 11 12 12 12 12 12 13 13 13 12 12 12 12 12 11 11 11 10 8 6 4 4 3 3
5 6 6 7 8 8 9 9 10 12 15 17 17 14 10 7 6 6 7 8 8 8 7 6 5 5 5 5 4 4 4 4 5 5 5 4 4 4 6 6 5 5 4 4 4 3 2 2 2 1 1 1 1 1 1 1 1 1 1 3 5 8 11 12 12 12 12 12 13 13 13 13 12 12 12 12 12 11 11 10 8 6 4 3 3 2
5 5 5 5 5 5 6 6 7 7 9 11 11 10 8 6 6 6 7 8 8 7 6 6 6 6 6 6 5 5 4 4 6 8 7 4 3 4 5 6 5 4 2 2 3 3 3 2 2 1 0 1 1 1 1 1 0 0 1 2 3 5 9 10 11 10 10 12 12 13 13 13 13 12 12 12 12 12 11 11 9 7 5 4 3 2
5 4 4 4 4 4 4 5 5 6 6 6 6 6 6 5 6 6 6 6 7 6 6 6 6 6 6 6 5 4 2 4 7 10 10 5 4 4 5 5 6 5 2 1 1 2 2 2 2 2 1 1 1 1 1 1 1 1 2 2 3 4 7 8 8 7 8 9 10 11 13 13 13 13 12 12 12 12 12 11 10 8 6 4 4 3
5 5 4 4 4 4 4 4 5 5 5 5 5 5 5 5 5 5 5 5 5 5 5 6 7 7 6 5 4 3 2 3 8 12 12 7 4 4 5 6 6 6 4 2 1 1 2 2 2 2 2 1 1 1 1 1 1 1 2 3 3 3 3 3 4 4 4 4 4 5 7 8 10 11 12 12 12 12 12 11 11 10 8 5 4 4
5 5 4 4 4 4 4 4 4 5 4 4 4 5 5 4 4 4 4 4 3 3 3 4 5 6 7 6 5 4 3 4 8 12 12 7 5 5 5 6 7 7 6 5 3 2 2 2 2 3 4 3 2 1 1 1 1 1 1 2 3 3 2 2 2 3 3 3 2 2 1 1 3 5 7 9 10 11 11 11 11 11 10 8 6 5
5 5 5 5 5 5 5 5 5 5 4 4 3 4 4 4 4 4 3 3 3 3 2 2 2 2 3 5 5 5 5 6 9 12 12 8 6 5 5 6 7 7 7 6 5 3 3 2 3 4 5 4 3 2 2 1 1 1 1 2 2 2 2 2 2 3 3 3 3 2 1 2 1 1 2 7 9 11 11 11 11 11 11 10 8 7
5 5 5 5 5 5 6 5 5 5 4 3 3 3 4 4 4 3 3 3 3 3 4 4 3 3 3 1 2 4 5 7 9 11 11 9 7 5 5 5 6 8 8 7 6 5 4 4 4 4 4 4 3 3 3 3 2 2 2 2 2 2 2 2 2 3 4 4 3 2 2 2 2 1 1 5 7 9 10 11 10 10 11 11 10 9
6 6 6 5 5 5 5 5 5 4 4 4 4 4 4 4 4 4 4 4 4 4 4 4 4 4 5 4 3 4 6 8 10 11 11 9 7 6 5 5 6 7 7 7 7 7 6 5 5 5 4 3 2 3 4 5 5 4 3 3 2 2 2 1 2 2 3 4 4 3 2 2 2 2 2 1 2 2 3 2 3 4 8 8 9 10
7 7 6 6 6 5 5 5 5 4 4 4 4 4 4 5 5 5 4 4 4 5 5 5 4 4 5 5 5 5 7 9 10 11 11 9 7 6 5 6 7 7 7 6 6 7 7 6 6 6 5 3 2 2 3 4 5 5 4 3 2 1 1 1 2 2 3 4 4 4 3 2 2 2 2 2 2 2 1 1 1 1 1 2 4 8
8 7 7 7 6 5 5 5 5 5 5 5 5 5 5 5 5 5 4 4 5 5 5 6 5 5 5 6 5 5 4 4 6 8 9 8 7 6 5 6 7 7 6 5 5 6 6 5 5 5 6 5 4 4 4 5 5 5 6 4 3 3 3 2 2 2 2 3 4 4 3 2 2 2 2 2 2 2 2 2 1 1 2 2 2 3
8 7 7 6 5 5 5 5 5 5 5 5 5 5 5 5 4 4 4 4 4 4 4 5 5 5 5 5 5 5 5 4 2 2 3 5 6 6 5 6 6 7 7 6 5 5 5 5 5 5 4 4 4 5 5 6 7 8 9 6 4 3 3 3 3 2 2 2 3 4 4 3 3 3 2 2 2 2 2 2 2 2 2 2 2 3
9 8 6 5 5 5 4 5 6 6 6 5 5 5 5 5 5 5 4 4 3 3 3 3 4 4 4 4 4 4 5 4 4 3 2 2 3 4 5 5 6 6 7 6 5 5 5 5 5 5 5 5 5 4 4 5 6 8 8 6 4 4 3 3 3 2 2 3 3 4 5 4 4 3 3 3 2 1 1 2 3 3 3 2 2 2
7 6 6 5 6 6 7 7 7 6 5 5 4 4 4 4 5 5 5 5 4 4 4 4 4 4 4 3 2 3 3 4 4 3 3 1 1 3 5 6 6 7 7 7 6 5 4 4 4 4 5 6 6 5 5 6 6 6 6 6 5 5 3 3 3 2 3 3 3 4 4 4 3 3 2 2 1 1 1 1 2 2 3 3 2 2
5 5 5 6 6 6 6 6 6 6 6 5 5 4 4 4 5 5 5 5 4 4 4 3 4 4 4 3 3 2 2 3 3 4 3 1 2 3 4 6 6 7 7 7 7 5 4 3 3 2 3 4 5 6 6 6 6 6 6 6 6 6 5 4 4 4 3 3 3 3 3 4 3 3 2 1 1 1 1 0 0 1 1 2 2 2
5 5 6 6 6 6 6 6 6 6 6 5 5 5 4 4 5 5 5 5 5 5 4 4 4 4 3 3 3 2 2 2 3 3 3 3 3 3 3 5 6 6 7 6 6 6 6 4 3 2 2 3 4 5 6 6 7 6 6 6 6 5 2 2 4 5 5 5 4 3 3 3 4 4 2 1 1 0 0 1 1 1 1 1 2 2
5 6 6 6 6 7 8 7 7 6 6 5 5 5 4 4 4 5 6 6 6 5 4 4 4 4 4 4 3 3 3 2 2 2 2 3 3 3 2 3 4 4 5 5 5 5 6 5 5 5 4 3 3 3 5 6 6 6 6 7 6 4 2 2 2 4 6 6 5 4 3 3 4 4 3 3 2 1 1 1 2 3 2 2 2 2
7 7 7 7 7 7 7 7 7 7 6 6 5 5 4 4 4 5 5 6 6 5 5 4 4 4 5 5 5 4 4 4 3 2 2 2 2 2 3 3 3 3 3 3 3 3 3 4 6 7 6 5 3 3 3 4 6 6 6 6 6 5 4 3 3 4 5 6 5 5 4 4 4 4 4 3 2 1 1 1 2 2 3 3 3 3
8 8 8 8 8 7 7 7 7 7 7 6 6 5 4 5 6 6 5 5 6 6 6 5 4 4 5 5 5 5 6 5 5 4 3 3 2 3 3 3 3 4 4 4 4 4 3 2 3 5 6 6 5 4 4 4 5 5 6 6 6 6 5 4 3 3 4 5 6 6 6 5 5 5 4 3 2 1 1 2 2 2 2 3 3 3
8 8 8 8 8 8 8 8 8 8 8 7 6 5 5 6 7 7 5 5 6 6 6 6 5 5 5 5 5 5 6 5 5 4 4 3 3 3 3 3 3 3 4 4 4 3 3 3 2 0 2 4 5 5 5 5 5 4 4 5 6 6 5 4 3 3 4 4 5 6 7 5 4 4 5 4 3 3 2 2 2 2 2 3 3 3
8 8 8 8 8 8 8 8 8 8 8 8 7 6 5 5 5 5 5 5 5 6 6 6 6 6 5 5 5 5 6 5 5 4 4 4 4 4 4 4 4 4 3 3 2 2 2 2 2 2 1 2 4 5 6 6 5 4 4 4 5 5 5 4 4 4 4 5 5 6 6 5 3 3 4 4 4 3 2 2 2 3 2 2 3 3
8 8 8 8 8 8 8 8 9 9 9 8 8 7 7 6 5 4 4 5 5 5 5 5 5 6 6 6 6 6 6 6 6 6 5 4 5 5 6 6 6 5 5 3 3 3 3 2 0 1 3 4 5 6 6 7 6 5 4 4 4 4 4 4 4 4 5 5 5 5 5 5 4 4 4 4 4 3 2 2 2 3 3 2 3 4
Wind_Direction
154 156 159 165 167 170 176 171 164 155 150 151 151 150 144 144 150 157 161 157 153 149 147 148 149 150 150 151 151 151 151 150 149 149 149 148 147 146 145 143 141 138 135 132 128 124 120 116 112 108 105 103 105 110 119 134 149 161 171 171 165 158 152 149 147 146 143 140 136 131 125 121 116 112 109 108 106 104 100 97 93 86 77 69 67 74
148 148 156 168 171 172 174 173 167 159 152 153 155 154 150 149 152 157 158 154 151 149 147 146 149 152 155 154 155 155 155 153 152 151 150 149 148 147 146 145 143 141 138 134 131 127 123 119 114 109 102 96 92 88 83 86 95 111 133 149 157 159 158 159 159 157 153 145 138 131 126 122 119 117 115 113 110 106 101 97 91 82 70 60 53 60
154 153 160 170 174 175 172 174 168 159 151 152 153 153 151 152 155 159 160 154 149 146 145 145 148 152 156 157 159 159 158 156 154 152 151 150 149 148 147 146 145 143 141 138 135 132 129 124 119 114 108 102 95 88 80 76 72 71 75 90 109 127 141 151 154 151 145 137 130 126 123 122 121 121 120 116 111 106 99 92 84 75 59 44 34 43
160 160 161 165 173 178 173 169 162 153 145 144 146 148 149 152 157 161 160 153 147 143 141 143 146 149 154 158 161 161 160 157 154 152 151 150 150 149 149 148 147 146 144 142 140 137 134 131 126 121 115 110 103 97 90 83 76 73 72 74 79 87 96 108 118 122 122 122 121 121 122 123 124 123 121 117 111 105 98 92 83 71 52 27 3 348
165 161 157 155 158 165 168 157 147 139 132 133 137 141 143 144 149 153 151 144 141 139 138 141 144 148 151 157 161 162 160 157 154 153 151 151 151 151 151 150 149 147 146 145 143 141 139 136 132 128 124 118 113 107 100 94 88 83 80 80 82 85 87 94 101 106 111 116 119 121 124 126 126 125 122 118 113 108 102 96 89 79 51 354 317 295
163 156 148 145 141 137 138 145 137 131 126 126 127 124 118 120 128 138 143 141 138 136 135 138 142 145 148 154 159 160 158 155 154 152 152 152 152 152 152 151 150 148 147 147 145 144 142 140 137 134 130 127 122 117 112 106 100 95 91 90 90 92 95 98 103 107 112 116 120 122 125 125 125 123 121 118 115 111 106 102 98 94 75 320 298 289
149 139 128 117 107 101 109 139 141 138 138 134 124 112 97 96 103 116 128 134 133 130 128 129 132 138 143 150 154 155 154 153 152 152 152 153 153 153 153 152 150 149 148 148 147 145 143 141 139 136 134 132 129 126 123 117 112 107 103 101 101 101 102 104 107 111 114 117 119 121 121 122 121 120 119 116 114 111 108 105 105 110 131 249 276 282
140 131 116 103 94 90 88 122 144 150 150 145 136 124 112 101 93 89 89 97 110 121 126 124 125 131 140 147 151 151 151 151 151 152 153 153 154 154 154 153 151 150 149 148 147 145 143 140 138 137 136 134 133 131 129 125 121 118 115 113 112 111 111 112 113 115 117 118 120 120 120 120 119 117 115 112 109 107 104 104 107 119 158 206 241 261
144 143 134 127 125 124 120 126 152 165 160 147 142 139 138 134 121 97 77 76 86 111 133 136 137 137 140 144 146 148 147 149 151 152 153 153 154 154 154 153 152 150 150 149 147 145 142 140 138 136 135 134 133 131 130 128 126 125 124 123 123 123 123 123 122 123 124 125 125 125 124 123 121 118 114 109 105 99 94 90 89 103 177 214 228 242
146 145 139 134 130 132 137 143 159 169 151 130 128 135 144 146 142 133 116 99 86 103 139 146 147 146 143 139 140 143 144 147 150 152 152 152 152 153 153 152 152 151 150 149 147 145 142 140 138 136 134 133 131 129 128 128 128 129 130 132 132 134 135 135 134 134 135 134 134 134 133 130 127 123 119 112 105 96 84 70 50 15 318 272 253 248
145 144 136 127 115 106 122 140 155 154 122 99 90 95 127 146 149 149 150 149 146 140 142 138 140 143 147 145 143 141 141 143 147 150 150 150 151 151 151 151 152 152 151 150 148 145 143 140 138 136 134 132 130 128 127 128 129 131 133 135 138 141 143 144 144 144 145 145 144 143 142 139 136 132 127 120 111 100 84 60 25 353 327 307 287 270
147 144 133 128 120 114 114 125 132 125 114 106 104 108 139 167 162 158 158 159 159 157 151 128 91 95 134 145 146 144 140 140 141 143 145 148 150 150 150 151 152 152 152 150 148 146 144 141 139 137 134 133 131 130 129 130 131 133 134 137 141 144 148 149 151 152 152 152 152 151 150 148 145 141 136 131 123 114 96 62 15 345 327 313 300 284
141 135 126 130 135 140 143 144 137 131 131 141 150 159 169 174 171 162 157 160 161 158 152 133 91 35 22 82 139 145 145 141 139 138 138 140 141 141 142 144 146 147 148 145 146 148 147 143 140 138 136 135 134 134 134 135 135 136 137 140 142 146 149 152 154 156 157 157 157 156 156 154 152 149 145 142 138 133 124 91 11 340 327 321 315 307
137 133 130 141 151 159 162 158 154 154 160 166 168 165 158 153 153 150 144 150 151 149 141 134 120 78 13 357 21 139 148 141 137 135 135 132 127 126 133 135 135 132 127 128 135 142 142 140 139 138 138 137 136 137 140 140 140 140 141 142 144 147 151 154 156 159 160 161 161 161 160 159 157 155 153 151 151 151 149 141 37 345 338 341 343 341
147 147 150 159 165 170 172 167 163 162 165 162 151 135 120 133 145 152 147 147 143 137 132 132 126 108 9 337 332 151 153 144 141 141 141 134 107 85 120 132 132 129 126 127 126 122 116 122 128 132 134 137 140 143 147 147 146 146 146 146 147 149 152 155 158 161 162 164 164 165 164 163 161 160 158 159 160 161 161 156 131 30 8 14 10 1
153 154 159 164 170 174 178 173 168 163 158 149 139 134 138 153 162 165 158 152 146 143 144 147 149 157 257 290 296 229 168 151 149 148 146 146 130 17 82 136 139 137 136 133 132 125 101 110 119 126 130 142 148 151 154 154 154 153 152 152 152 153 154 156 159 162 164 166 168 168 167 166 164 162 161 163 164 164 163 156 136 90 54 43 30 14
156 159 161 164 170 175 178 176 168 160 151 146 146 149 158 165 168 166 161 152 150 154 163 165 168 174 188 210 240 228 193 161 153 149 146 152 160 332 5 146 151 151 151 146 146 147 142 133 130 133 142 152 156 158 160 161 161 160 158 157 157 158 158 159 160 162 165 167 169 169 168 166 164 163 162 164 164 163 159 151 136 109 83 64 47 29
165 167 165 168 171 173 173 173 169 159 149 150 152 157 161 166 166 164 161 158 161 167 174 178 181 181 175 181 188 193 191 166 152 147 147 155 164 301 345 145 154 154 155 158 161 161 155 151 150 152 155 161 163 164 166 167 167 165 164 163 163 163 164 164 164 164 166 168 169 168 166 164 162 161 162 162 162 161 156 148 135 117 98 81 65 50
175 175 172 174 171 169 169 173 171 166 160 160 159 158 161 166 168 168 168 169 173 176 178 183 188 190 185 177 166 162 172 162 150 147 151 158 164 189 339 156 153 152 157 165 167 166 161 159 162 164 165 167 168 170 171 172 171 170 168 168 168 168 169 169 169 168 168 169 168 167 164 162 160 159 160 161 160 157 153 145 135 122 109 96 82 69
177 180 180 174 167 164 170 178 177 173 168 163 159 159 163 167 171 174 176 178 182 184 182 186 190 191 184 154 140 143 160 157 150 147 153 155 163 180 286 176 161 158 166 174 174 166 157 160 167 171 174 175 175 175 175 175 175 173 171 170 171 172 173 174 174 172 171 169 168 166 164 161 160 159 159 160 159 157 153 146 137 128 119 109 98 88
177 184 186 172 165 164 172 177 176 171 164 156 154 157 165 168 173 178 180 179 182 185 187 192 193 186 159 139 143 152 162 160 158 154 149 149 160 182 208 185 170 165 170 178 180 169 153 157 170 186 187 183 181 179 179 179 178 176 174 173 173 174 176 178 178 176 174 172 169 167 164 163 162 161 161 161 161 158 154 149 142 135 127 119 111 103
178 183 180 171 167 166 165 162 162 161 155 153 157 164 169 172 176 179 179 177 180 184 189 192 188 164 120 132 146 157 166 169 167 160 144 153 170 187 194 188 174 169 172 178 180 173 155 157 174 197 201 191 187 184 182 182 180 179 176 174 174 175 178 181 181 180 178 174 172 169 167 165 165 164 164 164 164 162 158 153 147 141 134 127 120 114
173 171 163 164 161 152 140 140 145 150 153 159 167 173 173 174 176 177 175 175 176 173 157 128 99 79 79 113 138 155 171 177 171 158 147 163 174 181 179 177 175 174 176 174 172 169 159 163 183 209 214 198 192 188 185 184 183 181 178 176 176 177 180 182 183 183 180 177 175 172 170 169 168 168 167 167 166 165 162 158 153 147 142 135 129 124
161 155 152 154 146 134 126 135 143 151 158 166 171 172 165 165 164 163 160 156 146 130 111 95 82 75 77 112 137 159 179 179 169 155 157 168 167 163 163 171 177 179 175 164 156 155 157 167 178 229 272 208 198 191 188 187 186 184 180 179 179 179 182 185 185 184 182 180 178 176 173 172 171 171 170 170 169 167 165 161 158 153 148 142 137 132
154 150 150 149 144 141 140 145 150 155 160 163 162 154 139 131 123 114 106 108 110 113 118 118 118 118 120 141 154 168 184 180 171 164 165 157 147 144 159 173 178 177 165 147 139 146 153 167 178 242 308 230 206 195 192 191 189 186 183 181 181 182 184 186 186 185 185 183 182 180 178 176 174 174 172 171 170 169 167 164 161 157 152 147 143 139
153 151 150 149 148 147 149 152 155 159 161 161 159 151 137 126 118 112 109 119 129 136 139 145 151 154 147 153 164 173 180 182 182 175 162 140 136 143 164 175 176 168 147 130 129 148 160 172 184 216 275 259 227 208 201 196 193 189 186 184 183 184 186 187 187 186 186 186 185 183 181 179 178 176 174 173 171 169 167 166 162 158 151 144 141 141
154 151 150 151 151 152 153 156 159 162 164 164 161 155 145 136 134 138 150 157 157 156 158 166 166 159 147 162 171 173 171 178 184 180 149 132 135 147 166 172 168 155 137 130 141 161 168 174 185 206 234 273 294 266 219 207 199 193 188 186 186 186 187 188 188 187 187 187 186 185 184 182 180 178 176 174 172 169 167 165 161 153 141 128 124 129
155 154 154 154 155 156 158 161 164 166 168 167 163 159 153 149 153 161 171 167 163 163 171 175 170 162 161 172 170 165 166 178 183 178 149 134 139 150 162 164 161 152 137 129 128 141 154 169 191 217 244 264 294 289 252 223 206 196 190 188 188 188 189 189 189 188 187 187 187 186 185 183 181 179 177 175 173 170 168 164 157 145 122 100 80 64
151 152 154 156 158 159 161 164 167 170 171 169 167 164 162 162 166 170 169 161 161 169 181 182 175 164 157 154 142 140 176 189 186 174 154 143 142 146 149 156 158 152 137 125 108 83 6 301 270 250 258 257 266 279 278 247 218 200 191 189 189 190 190 190 189 188 187 187 187 186 185 184 182 180 179 177 175 172 168 161 151 134 103 89 76 60
144 147 151 156 158 160 163 166 170 172 173 171 170 169 169 171 170 166 156 158 165 175 183 181 171 157 144 134 131 152 204 200 186 170 162 159 151 144 144 156 162 160 147 137 129 130 269 272 263 248 249 246 243 251 282 284 257 220 196 190 189 190 191 191 190 189 188 187 187 186 185 184 183 181 180 179 177 174 168 157 143 123 99 92 82 70
142 143 148 153 156 159 161 165 169 172 174 173 172 172 172 171 166 159 155 164 172 178 180 175 166 157 153 150 160 180 202 191 179 171 176 172 156 144 152 159 165 167 162 153 152 162 196 234 244 242 241 236 234 235 241 284 306 295 234 188 186 188 192 192 191 189 188 188 187 186 186 185 184 183 182 181 180 176 169 155 140 123 113 108 100 90
139 139 141 144 147 151 156 161 166 170 173 173 173 173 170 167 163 160 162 170 175 177 176 169 163 162 168 174 181 186 184 172 171 174 180 170 148 139 157 159 162 166 168 152 150 154 159 183 199 205 187 214 220 224 220 220 220 196 175 170 176 185 192 191 190 189 189 188 188 187 186 185 184 184 183 183 182 179 172 160 147 135 125 123 123 123
133 132 133 135 139 144 151 157 161 166 168 169 168 166 161 160 160 163 167 173 176 175 171 165 163 166 176 185 187 182 161 161 169 173 176 162 142 140 159 158 159 158 149 91 83 114 132 149 158 164 179 198 207 208 207 207 188 169 158 164 172 184 192 189 187 187 188 187 187 187 187 185 185 185 184 185 184 182 176 167 158 149 138 134 135 137
135 136 136 138 140 142 146 150 154 157 159 159 156 153 149 150 155 161 168 172 175 174 170 165 165 168 175 183 183 175 158 171 172 172 172 160 146 146 156 160 160 159 156 146 107 82 93 121 137 145 154 174 187 199 198 203 180 159 153 166 171 178 191 181 174 172 175 176 179 184 186 186 186 185 184 185 185 184 180 173 165 159 156 150 145 140
143 145 148 147 147 146 146 146 146 146 145 144 143 143 142 143 145 150 155 156 156 156 158 163 166 169 173 178 179 178 181 179 174 172 170 163 152 147 154 164 165 164 165 165 154 126 108 131 149 152 143 154 173 205 222 212 165 134 146 166 165 163 164 143 138 137 132 126 113 106 140 155 177 181 183 186 187 186 184 179 174 169 167 162 157 150
152 157 160 158 156 155 154 152 148 142 136 127 124 125 128 128 129 129 128 124 113 101 88 93 119 152 172 179 178 176 171 168 170 171 171 166 157 151 155 166 168 167 167 168 163 149 131 139 150 151 144 150 165 186 201 172 116 112 140 157 150 140 131 123 126 129 127 125 119 107 82 78 87 130 180 188 188 187 185 183 180 177 174 172 169 164
161 166 169 167 164 160 158 156 150 143 136 125 114 109 111 111 111 110 106 102 99 94 85 73 63 55 51 90 145 154 150 156 165 170 172 168 163 160 160 163 168 170 171 170 166 157 140 139 143 149 151 156 164 170 172 157 147 147 161 159 146 131 125 121 128 134 134 141 143 140 125 112 103 104 128 186 187 186 186 185 184 182 181 180 178 175
169 172 174 172 168 163 158 156 153 147 139 130 120 112 106 103 101 99 96 93 93 94 92 83 71 58 49 56 78 114 134 150 161 168 169 167 168 167 161 157 167 176 178 172 167 161 153 150 153 160 169 172 172 167 163 162 166 171 172 156 136 122 126 129 139 145 144 148 148 145 130 113 102 93 78 116 134 152 172 189 198 193 186 185 184 183
174 175 176 175 172 167 162 159 152 142 131 125 120 115 109 102 97 91 87 86 86 87 88 87 80 66 52 54 70 100 129 152 162 166 167 168 169 168 160 158 166 175 178 172 168 166 165 164 165 167 169 168 165 163 161 166 168 166 158 144 138 148 170 158 157 156 152 151 150 147 131 103 95 98 95 89 93 100 108 62 24 37 129 161 185 189
177 177 176 175 172 166 159 149 138 129 123 120 117 115 111 106 98 90 83 83 84 86 88 86 82 72 58 50 50 59 84 135 157 163 166 169 171 170 162 161 163 166 166 166 168 171 173 171 168 166 163 158 157 160 164 171 169 163 157 157 169 189 195 179 172 166 156 153 153 153 150 130 118 120 128 128 135 145 156 156 132 91 84 95 142 180
176 175 173 169 159 145 130 123 121 123 126 125 124 123 122 119 113 106 97 91 89 91 95 91 84 75 63 53 44 37 33 36 61 119 150 165 168 167 161 160 160 159 159 161 167 172 173 165 160 155 152 148 148 152 161 171 171 170 170 172 177 181 181 172 165 157 158 158 157 157 157 154 153 155 159 160 162 160 156 149 146 137 110 111 129 145
174 171 166 155 141 130 119 117 119 124 128 130 133 138 142 139 135 132 126 120 116 116 118 114 105 94 78 62 49 39 33 26 27 35 62 128 155 160 158 158 157 156 156 159 164 169 169 161 157 155 156 149 144 145 158 169 173 176 179 171 152 134 135 167 171 160 163 170 167 163 163 163 166 171 171 171 174 168 132 144 147 147 143 140 137 141
171 162 148 138 131 128 126 124 126 131 136 139 145 150 151 148 145 142 139 137 139 142 139 130 124 118 110 95 71 46 32 24 25 32 45 66 134 153 155 154 154 155 155 157 160 162 160 151 152 157 162 154 148 147 153 165 173 178 181 163 148 142 159 189 189 175 172 177 174 169 168 168 167 165 160 152 136 106 80 152 166 163 155 152 149 148
154 138 128 126 126 125 127 133 140 146 148 150 152 152 151 152 148 144 140 141 142 142 140 132 122 116 112 113 106 84 45 27 27 33 46 77 131 146 146 149 153 156 158 159 159 157 147 143 146 153 156 148 146 148 153 163 171 177 178 169 168 171 180 175 168 166 174 182 180 173 168 159 147 134 124 113 93 79 90 135 175 171 146 135 136 140
133 128 128 131 133 136 143 148 151 152 152 152 151 151 154 157 153 148 144 142 143 145 146 141 132 123 118 127 126 115 85 52 37 32 31 44 73 107 131 146 153 158 162 164 162 159 155 154 154 152 139 135 142 150 157 163 169 174 177 176 178 179 161 139 152 164 174 181 182 177 162 144 133 128 129 143 160 181 166 171 178 180 167 137 137 146
136 138 141 143 148 152 156 155 153 151 151 152 152 153 157 157 154 149 146 145 147 150 157 154 148 144 146 149 146 138 124 105 78 51 33 27 28 40 81 126 143 152 158 160 160 160 160 156 151 144 133 127 136 152 161 162 166 171 175 177 177 170 126 125 160 175 177 178 176 171 155 139 136 142 160 175 191 215 240 200 191 188 182 173 171 171
151 151 152 154 156 157 156 152 151 152 155 156 156 156 156 155 152 149 147 148 149 152 158 159 156 153 152 154 155 154 151 146 138 121 94 71 59 57 63 73 83 92 102 113 117 124 139 146 148 149 148 146 154 168 175 167 167 169 173 174 175 174 171 179 186 186 180 175 169 162 150 144 149 160 172 173 182 217 262 240 219 203 189 182 180 182
158 158 158 158 157 156 155 155 157 158 160 159 157 156 159 160 159 155 151 153 153 154 158 162 160 154 150 157 161 162 159 155 151 145 134 122 110 100 91 82 75 71 69 69 68 68 71 98 135 151 157 157 160 168 176 174 173 172 170 171 173 178 185 188 189 185 178 172 165 161 159 162 168 172 170 167 176 208 246 245 239 226 207 190 184 185
160 161 161 160 160 160 160 161 162 163 162 159 156 156 163 167 166 162 156 157 158 160 164 166 163 157 153 160 164 162 157 151 148 146 144 140 132 124 118 111 101 89 76 63 56 50 44 39 34 90 165 159 158 160 167 171 172 169 164 168 174 180 184 181 175 172 173 167 164 166 173 176 172 163 157 165 178 199 221 237 243 239 223 201 193 191
162 162 163 163 164 164 164 164 165 165 164 160 158 158 162 167 167 164 156 158 162 166 169 167 163 159 157 161 162 161 157 152 148 148 151 149 145 140 137 133 127 118 104 82 65 59 56 40 10 339 286 187 163 155 157 161 161 158 158 170 177 180 180 172 167 166 170 165 165 168 176 174 163 149 149 165 177 189 205 233 245 243 232 208 198 198
163 164 165 166 166 166 164 165 166 166 164 161 159 158 160 163 163 160 156 161 166 168 168 165 162 161 161 162 164 164 162 157 155 156 159 156 153 150 149 148 145 142 135 127 120 115 111 109 71 298 275 227 191 167 154 156 155 156 164 177 180 176 172 164 160 161 165 164 165 167 171 169 164 158 159 164 169 176 194 225 241 244 236 208 197 200